Time,TemperatureF,DewpointF,PressureIn,WindDirection,WindDirectionDegrees,WindSpeedMPH,WindSpeedGustMPH,Humidity,HourlyPrecipIn,Conditions,Clouds,dailyrainin,SoftwareType,DateUTC
2013-01-07 00:03:00,43.6,40.2,30.17,NNW,338,0.0,0.4,88,0.00,,,0.00,WUHU216HW,2013-01-07 08:03:00,
2013-01-07 00:08:00,43.6,40.2,30.17,NNW,338,0.0,0.0,88,0.00,,,0.00,WUHU216HW,2013-01-07 08:08:00,
2013-01-07 00:13:00,43.6,40.2,30.17,NNW,338,0.0,0.0,88,0.00,,,0.00,WUHU216HW,2013-01-07 08:13:00,
2013-01-07 00:25:00,43.6,40.2,30.17,NW,315,0.0,0.0,88,0.00,,,0.00,WUHU216HW,2013-01-07 08:25:00,
2013-01-07 00:30:00,43.7,40.8,30.17,WNW,293,0.0,0.4,89,0.00,,,0.00,WUHU216HW,2013-01-07 08:30:00,
2013-01-07 00:35:00,43.9,41.2,30.16,WNW,293,0.0,1.1,90,0.00,,,0.00,WUHU216HW,2013-01-07 08:35:00,
2013-01-07 00:40:00,43.9,41.2,30.17,WNW,293,0.4,1.1,90,0.00,,,0.00,WUHU216HW,2013-01-07 08:40:00,
2013-01-07 00:45:00,44.1,41.1,30.16,West,270,0.4,1.1,89,0.00,,,0.00,WUHU216HW,2013-01-07 08:45:00,
2013-01-07 00:50:00,44.1,41.1,30.16,WNW,293,1.3,1.3,89,0.00,,,0.00,WUHU216HW,2013-01-07 08:50:00,
2013-01-07 00:55:00,44.1,41.1,30.16,WSW,248,0.7,2.0,89,0.00,,,0.00,WUHU216HW,2013-01-07 08:55:00,
2013-01-07 01:00:00,44.1,41.1,30.16,West,270,0.9,2.7,89,0.00,,,0.00,WUHU216HW,2013-01-07 09:00:00,
2013-01-07 01:05:00,44.1,40.8,30.16,WNW,293,0.4,2.7,88,0.00,,,0.00,WUHU216HW,2013-01-07 09:05:00,
2013-01-07 01:10:00,44.1,41.1,30.16,West,270,0.9,1.1,89,0.00,,,0.00,WUHU216HW,2013-01-07 09:10:00,
2013-01-07 01:15:00,43.9,41.0,30.16,West,270,0.2,1.1,89,0.00,,,0.00,WUHU216HW,2013-01-07 09:15:00,
2013-01-07 01:20:00,43.9,41.0,30.16,WNW,293,0.0,1.1,89,0.00,,,0.00,WUHU216HW,2013-01-07 09:20:00,
2013-01-07 01:25:00,43.9,40.6,30.16,SW,225,0.0,0.4,88,0.00,,,0.00,WUHU216HW,2013-01-07 09:25:00,
2013-01-07 01:30:00,43.9,41.0,30.17,East,90,0.0,0.2,89,0.00,,,0.00,WUHU216HW,2013-01-07 09:30:00,
2013-01-07 01:35:00,43.9,40.6,30.17,ENE,68,0.2,0.4,88,0.00,,,0.00,WUHU216HW,2013-01-07 09:35:00,
2013-01-07 01:40:00,43.7,40.4,30.17,North,0,0.0,0.4,88,0.00,,,0.00,WUHU216HW,2013-01-07 09:40:00,
2013-01-07 01:45:00,43.7,40.4,30.17,NNE,23,0.0,0.2,88,0.00,,,0.00,WUHU216HW,2013-01-07 09:45:00,
2013-01-07 01:50:00,43.7,40.4,30.17,East,90,0.0,0.2,88,0.00,,,0.00,WUHU216HW,2013-01-07 09:50:00,
2013-01-07 01:55:00,43.7,40.4,30.17,ENE,68,0.4,0.4,88,0.00,,,0.00,WUHU216HW,2013-01-07 09:55:00,
2013-01-07 02:00:00,43.7,40.8,30.17,ENE,68,0.0,0.4,89,0.00,,,0.00,WUHU216HW,2013-01-07 10:00:00,
2013-01-07 02:05:00,43.7,40.4,30.17,ENE,68,0.0,0.4,88,0.00,,,0.00,WUHU216HW,2013-01-07 10:05:00,
2013-01-07 02:10:00,43.7,40.4,30.18,ENE,68,0.0,0.0,88,0.00,,,0.00,WUHU216HW,2013-01-07 10:10:00,
2013-01-07 02:15:00,43.7,40.4,30.18,ENE,68,0.0,0.0,88,0.00,,,0.00,WUHU216HW,2013-01-07 10:15:00,
2013-01-07 02:20:00,43.7,40.4,30.18,ENE,68,0.0,0.0,88,0.00,,,0.00,WUHU216HW,2013-01-07 10:20:00,
2013-01-07 02:25:00,43.7,40.4,30.18,ENE,68,0.0,0.0,88,0.00,,,0.00,WUHU216HW,2013-01-07 10:25:00,
2013-01-07 02:30:00,43.7,40.4,30.18,ENE,68,0.0,0.0,88,0.00,,,0.00,WUHU216HW,2013-01-07 10:30:00,
2013-01-07 02:35:00,43.7,40.4,30.18,ENE,68,0.0,0.0,88,0.00,,,0.00,WUHU216HW,2013-01-07 10:35:00,
2013-01-07 02:40:00,43.7,40.4,30.18,WSW,248,0.0,0.0,88,0.00,,,0.00,WUHU216HW,2013-01-07 10:40:00,
2013-01-07 02:45:00,43.7,40.4,30.18,WSW,248,0.0,0.0,88,0.00,,,0.00,WUHU216HW,2013-01-07 10:45:00,
2013-01-07 02:50:00,43.9,40.6,30.18,SW,225,0.0,0.4,88,0.00,,,0.00,WUHU216HW,2013-01-07 10:50:00,
2013-01-07 02:55:00,43.9,40.6,30.18,SSE,158,0.4,0.4,88,0.00,,,0.00,WUHU216HW,2013-01-07 10:55:00,
2013-01-07 03:00:00,43.9,40.6,30.18,South,180,0.7,0.7,88,0.00,,,0.00,WUHU216HW,2013-01-07 11:00:00,
2013-01-07 03:05:00,43.9,40.6,30.19,SW,225,0.0,0.7,88,0.00,,,0.00,WUHU216HW,2013-01-07 11:05:00,
2013-01-07 03:10:00,43.9,41.0,30.18,SSW,203,0.0,0.9,89,0.00,,,0.00,WUHU216HW,2013-01-07 11:10:00,
2013-01-07 03:15:00,43.9,41.0,30.19,SSW,203,0.2,0.9,89,0.00,,,0.00,WUHU216HW,2013-01-07 11:15:00,
2013-01-07 03:20:00,43.9,41.0,30.19,SSW,203,0.4,0.9,89,0.00,,,0.00,WUHU216HW,2013-01-07 11:20:00,
2013-01-07 03:25:00,43.9,41.0,30.19,SW,225,0.2,0.4,89,0.00,,,0.00,WUHU216HW,2013-01-07 11:25:00,
2013-01-07 03:30:00,43.9,40.6,30.19,SSW,203,0.2,0.9,88,0.00,,,0.00,WUHU216HW,2013-01-07 11:30:00,
2013-01-07 03:35:00,43.9,41.0,30.19,SE,135,0.4,1.1,89,0.00,,,0.00,WUHU216HW,2013-01-07 11:35:00,
2013-01-07 03:40:00,43.9,41.0,30.19,South,180,0.4,1.1,89,0.00,,,0.00,WUHU216HW,2013-01-07 11:40:00,
2013-01-07 03:45:00,43.9,40.6,30.19,SSW,203,0.0,1.1,88,0.00,,,0.00,WUHU216HW,2013-01-07 11:45:00,
2013-01-07 03:50:00,43.9,40.6,30.20,SSE,158,0.0,0.4,88,0.00,,,0.00,WUHU216HW,2013-01-07 11:50:00,
2013-01-07 03:55:00,43.7,40.4,30.20,SSE,158,0.0,0.0,88,0.00,,,0.00,WUHU216HW,2013-01-07 11:55:00,
2013-01-07 04:00:00,43.7,40.4,30.20,SSE,158,0.0,0.0,88,0.00,,,0.00,WUHU216HW,2013-01-07 12:00:00,
2013-01-07 04:05:00,43.7,40.8,30.20,ESE,113,0.0,0.0,89,0.00,,,0.00,WUHU216HW,2013-01-07 12:05:00,
2013-01-07 04:10:00,43.7,40.4,30.20,ESE,113,0.0,0.0,88,0.00,,,0.00,WUHU216HW,2013-01-07 12:10:00,
2013-01-07 04:15:00,43.7,40.4,30.21,SE,135,0.0,0.0,88,0.00,,,0.00,WUHU216HW,2013-01-07 12:15:00,
2013-01-07 04:20:00,43.6,40.6,30.21,ESE,113,0.0,0.0,89,0.00,,,0.00,WUHU216HW,2013-01-07 12:20:00,
2013-01-07 04:25:00,43.6,40.2,30.21,ESE,113,0.0,0.0,88,0.00,,,0.00,WUHU216HW,2013-01-07 12:25:00,
2013-01-07 04:30:00,43.6,40.2,30.21,East,90,0.0,0.4,88,0.00,,,0.00,WUHU216HW,2013-01-07 12:30:00,
2013-01-07 04:35:00,43.6,40.6,30.21,ESE,113,0.2,0.4,89,0.00,,,0.00,WUHU216HW,2013-01-07 12:35:00,
2013-01-07 04:40:00,43.6,40.6,30.21,SE,135,1.1,1.1,89,0.00,,,0.00,WUHU216HW,2013-01-07 12:40:00,
2013-01-07 04:45:00,43.6,40.9,30.21,ESE,113,0.0,1.1,90,0.00,,,0.00,WUHU216HW,2013-01-07 12:45:00,
2013-01-07 04:50:00,43.6,40.9,30.22,ESE,113,0.9,0.9,90,0.00,,,0.00,WUHU216HW,2013-01-07 12:50:00,
2013-01-07 04:55:00,43.6,40.6,30.23,ESE,113,0.0,0.9,89,0.00,,,0.00,WUHU216HW,2013-01-07 12:55:00,
2013-01-07 05:00:00,43.6,40.6,30.23,SW,225,0.0,0.7,89,0.00,,,0.00,WUHU216HW,2013-01-07 13:00:00,
2013-01-07 05:05:00,43.6,40.2,30.23,SE,135,0.0,0.2,88,0.00,,,0.00,WUHU216HW,2013-01-07 13:05:00,
2013-01-07 05:10:00,43.6,40.2,30.23,SE,135,0.4,0.4,88,0.00,,,0.00,WUHU216HW,2013-01-07 13:10:00,
2013-01-07 05:15:00,43.6,40.6,30.22,SE,135,0.2,0.4,89,0.00,,,0.00,WUHU216HW,2013-01-07 13:15:00,
2013-01-07 05:20:00,43.6,40.6,30.22,SE,135,0.7,1.1,89,0.00,,,0.00,WUHU216HW,2013-01-07 13:20:00,
2013-01-07 05:25:00,43.6,40.6,30.23,East,90,0.0,1.1,89,0.00,,,0.00,WUHU216HW,2013-01-07 13:25:00,
2013-01-07 05:30:00,43.6,40.6,30.23,ESE,113,0.7,1.1,89,0.00,,,0.00,WUHU216HW,2013-01-07 13:30:00,
2013-01-07 05:35:00,43.6,40.6,30.22,ENE,68,1.6,1.6,89,0.00,,,0.00,WUHU216HW,2013-01-07 13:35:00,
2013-01-07 05:40:00,43.6,40.6,30.22,ESE,113,1.1,1.6,89,0.00,,,0.00,WUHU216HW,2013-01-07 13:40:00,
2013-01-07 05:45:00,43.7,40.8,30.22,SE,135,0.7,1.6,89,0.00,,,0.00,WUHU216HW,2013-01-07 13:45:00,
2013-01-07 05:50:00,43.7,40.8,30.22,ESE,113,0.7,1.6,89,0.00,,,0.00,WUHU216HW,2013-01-07 13:50:00,
2013-01-07 05:55:00,43.7,40.8,30.22,SW,225,0.4,1.6,89,0.00,,,0.00,WUHU216HW,2013-01-07 13:55:00,
2013-01-07 06:00:00,43.6,40.6,30.23,South,180,0.9,1.3,89,0.00,,,0.00,WUHU216HW,2013-01-07 14:00:00,
2013-01-07 06:05:00,43.7,40.8,30.23,SW,225,0.7,1.8,89,0.00,,,0.00,WUHU216HW,2013-01-07 14:05:00,
2013-01-07 06:10:00,43.7,40.8,30.23,SW,225,1.1,1.8,89,0.00,,,0.00,WUHU216HW,2013-01-07 14:10:00,
2013-01-07 06:15:00,43.7,40.8,30.23,SSE,158,0.4,1.3,89,0.00,,,0.00,WUHU216HW,2013-01-07 14:15:00,
2013-01-07 06:20:00,43.7,40.8,30.24,South,180,0.4,1.6,89,0.00,,,0.00,WUHU216HW,2013-01-07 14:20:00,
2013-01-07 06:25:00,43.7,40.8,30.24,SSE,158,0.4,1.8,89,0.00,,,0.00,WUHU216HW,2013-01-07 14:25:00,
2013-01-07 06:30:00,43.9,41.0,30.25,SW,225,0.9,2.2,89,0.00,,,0.00,WUHU216HW,2013-01-07 14:30:00,
2013-01-07 06:35:00,43.9,41.0,30.24,SE,135,0.4,2.2,89,0.00,,,0.00,WUHU216HW,2013-01-07 14:35:00,
2013-01-07 06:40:00,43.7,40.8,30.25,SE,135,0.4,1.8,89,0.00,,,0.00,WUHU216HW,2013-01-07 14:40:00,
2013-01-07 06:45:00,43.7,40.8,30.26,WSW,248,0.7,2.2,89,0.00,,,0.00,WUHU216HW,2013-01-07 14:45:00,
2013-01-07 06:50:00,43.7,40.8,30.26,SSW,203,0.7,2.2,89,0.00,,,0.00,WUHU216HW,2013-01-07 14:50:00,
2013-01-07 06:55:00,43.7,40.8,30.26,South,180,1.1,1.8,89,0.00,,,0.00,WUHU216HW,2013-01-07 14:55:00,
2013-01-07 07:00:00,43.7,40.8,30.26,SSW,203,0.4,1.1,89,0.00,,,0.00,WUHU216HW,2013-01-07 15:00:00,
2013-01-07 07:05:00,43.7,40.8,30.26,SSW,203,0.0,1.1,89,0.00,,,0.00,WUHU216HW,2013-01-07 15:05:00,
2013-01-07 07:10:00,43.7,40.8,30.26,SSW,203,0.4,1.1,89,0.00,,,0.00,WUHU216HW,2013-01-07 15:10:00,
2013-01-07 07:15:00,43.6,40.6,30.27,SSW,203,0.0,0.9,89,0.00,,,0.00,WUHU216HW,2013-01-07 15:15:00,
2013-01-07 07:20:00,43.6,40.6,30.27,SE,135,0.2,0.4,89,0.00,,,0.00,WUHU216HW,2013-01-07 15:20:00,
2013-01-07 07:25:00,43.6,40.6,30.27,ESE,113,0.9,1.1,89,0.00,,,0.00,WUHU216HW,2013-01-07 15:25:00,
2013-01-07 07:30:00,43.6,40.6,30.27,SSE,158,0.4,1.6,89,0.00,,,0.00,WUHU216HW,2013-01-07 15:30:00,
2013-01-07 07:35:00,43.7,40.8,30.27,ESE,113,0.0,1.6,89,0.00,,,0.00,WUHU216HW,2013-01-07 15:35:00,
2013-01-07 07:40:00,43.7,40.8,30.27,SE,135,0.0,0.9,89,0.00,,,0.00,WUHU216HW,2013-01-07 15:40:00,
2013-01-07 07:45:00,43.7,40.4,30.27,SE,135,0.0,0.2,88,0.00,,,0.00,WUHU216HW,2013-01-07 15:45:00,
2013-01-07 07:50:00,43.9,41.0,30.27,SE,135,0.0,0.2,89,0.00,,,0.00,WUHU216HW,2013-01-07 15:50:00,
2013-01-07 07:55:00,43.9,40.6,30.28,SSE,158,0.4,0.4,88,0.00,,,0.00,WUHU216HW,2013-01-07 15:55:00,
2013-01-07 08:00:00,43.9,41.0,30.28,SE,135,0.0,0.7,89,0.00,,,0.00,WUHU216HW,2013-01-07 16:00:00,
2013-01-07 08:05:00,44.3,41.3,30.28,ESE,113,0.0,0.7,89,0.00,,,0.00,WUHU216HW,2013-01-07 16:05:00,
2013-01-07 08:10:00,44.3,41.3,30.28,SSE,158,0.2,0.4,89,0.00,,,0.00,WUHU216HW,2013-01-07 16:10:00,
2013-01-07 08:15:00,44.3,41.0,30.28,SW,225,0.0,0.9,88,0.00,,,0.00,WUHU216HW,2013-01-07 16:15:00,
2013-01-07 08:20:00,44.5,41.1,30.28,SE,135,0.4,1.1,88,0.00,,,0.00,WUHU216HW,2013-01-07 16:20:00,
2013-01-07 08:25:00,44.6,41.7,30.28,ESE,113,0.0,1.1,89,0.00,,,0.00,WUHU216HW,2013-01-07 16:25:00,
2013-01-07 08:30:00,44.8,41.9,30.28,SE,135,0.2,0.9,89,0.00,,,0.00,WUHU216HW,2013-01-07 16:30:00,
2013-01-07 08:35:00,44.8,41.9,30.28,SE,135,0.0,0.9,89,0.00,,,0.00,WUHU216HW,2013-01-07 16:35:00,
2013-01-07 08:40:00,44.8,41.9,30.28,SSE,158,1.3,1.3,89,0.00,,,0.00,WUHU216HW,2013-01-07 16:40:00,
2013-01-07 08:45:00,45.0,41.7,30.29,SW,225,1.8,1.8,88,0.00,,,0.00,WUHU216HW,2013-01-07 16:45:00,
2013-01-07 08:50:00,45.0,41.7,30.30,South,180,0.7,2.0,88,0.00,,,0.00,WUHU216HW,2013-01-07 16:50:00,
2013-01-07 08:55:00,45.0,41.7,30.30,SSE,158,0.7,2.0,88,0.00,,,0.00,WUHU216HW,2013-01-07 16:55:00,
2013-01-07 09:00:00,45.2,41.9,30.31,SE,135,0.9,1.3,88,0.00,,,0.00,WUHU216HW,2013-01-07 17:00:00,
2013-01-07 09:05:00,45.0,41.4,30.31,SSE,158,1.1,1.3,87,0.00,,,0.00,WUHU216HW,2013-01-07 17:05:00,
2013-01-07 09:10:00,45.2,41.6,30.32,SSE,158,0.7,1.3,87,0.00,,,0.00,WUHU216HW,2013-01-07 17:10:00,
2013-01-07 09:15:00,45.2,41.6,30.32,SE,135,0.4,1.3,87,0.00,,,0.00,WUHU216HW,2013-01-07 17:15:00,
2013-01-07 09:20:00,45.2,41.6,30.32,SE,135,0.4,1.3,87,0.00,,,0.00,WUHU216HW,2013-01-07 17:20:00,
2013-01-07 09:25:00,45.4,41.8,30.32,SSW,203,0.0,0.9,87,0.00,,,0.00,WUHU216HW,2013-01-07 17:25:00,
2013-01-07 09:30:00,45.7,42.1,30.32,SE,135,0.4,0.9,87,0.00,,,0.00,WUHU216HW,2013-01-07 17:30:00,
2013-01-07 09:35:00,45.7,41.8,30.32,SSE,158,0.4,1.3,86,0.00,,,0.00,WUHU216HW,2013-01-07 17:35:00,
2013-01-07 09:40:00,45.9,41.9,30.32,SSE,158,1.1,1.3,86,0.00,,,0.00,WUHU216HW,2013-01-07 17:40:00,
2013-01-07 09:45:00,46.1,42.1,30.32,SE,135,1.3,1.3,86,0.00,,,0.00,WUHU216HW,2013-01-07 17:45:00,
2013-01-07 09:50:00,46.1,42.1,30.32,SE,135,1.6,2.2,86,0.00,,,0.00,WUHU216HW,2013-01-07 17:50:00,
2013-01-07 09:55:00,46.3,42.3,30.31,SE,135,1.1,2.2,86,0.00,,,0.00,WUHU216HW,2013-01-07 17:55:00,
2013-01-07 10:00:00,46.4,42.2,30.31,SE,135,1.3,2.5,85,0.00,,,0.00,WUHU216HW,2013-01-07 18:00:00,
2013-01-07 10:05:00,46.8,42.6,30.31,ESE,113,1.3,2.5,85,0.00,,,0.00,WUHU216HW,2013-01-07 18:05:00,
2013-01-07 10:10:00,47.0,42.8,30.31,South,180,1.8,2.2,85,0.00,,,0.00,WUHU216HW,2013-01-07 18:10:00,
2013-01-07 10:15:00,47.3,42.8,30.30,SE,135,1.3,2.5,84,0.00,,,0.00,WUHU216HW,2013-01-07 18:15:00,
2013-01-07 10:20:00,47.5,42.9,30.30,SSE,158,1.1,2.5,84,0.00,,,0.00,WUHU216HW,2013-01-07 18:20:00,
2013-01-07 10:25:00,47.7,43.1,30.29,SW,225,1.8,2.2,84,0.00,,,0.00,WUHU216HW,2013-01-07 18:25:00,
2013-01-07 10:30:00,48.1,43.1,30.28,SSW,203,2.7,3.4,83,0.00,,,0.00,WUHU216HW,2013-01-07 18:30:00,
2013-01-07 10:35:00,48.4,43.5,30.28,WSW,248,1.8,3.6,83,0.00,,,0.00,WUHU216HW,2013-01-07 18:35:00,
2013-01-07 10:40:00,49.0,43.4,30.28,SSE,158,3.1,3.6,81,0.00,,,0.00,WUHU216HW,2013-01-07 18:40:00,
2013-01-07 10:45:00,49.3,43.4,30.28,SE,135,2.0,4.0,80,0.00,,,0.00,WUHU216HW,2013-01-07 18:45:00,
2013-01-07 10:50:00,49.5,42.8,30.28,SW,225,3.8,4.0,78,0.00,,,0.00,WUHU216HW,2013-01-07 18:50:00,
2013-01-07 10:55:00,49.3,42.7,30.28,SSE,158,1.1,3.8,78,0.00,,,0.00,WUHU216HW,2013-01-07 18:55:00,
2013-01-07 11:00:00,49.3,42.7,30.28,SW,225,1.3,3.8,78,0.00,,,0.00,WUHU216HW,2013-01-07 19:00:00,
2013-01-07 11:05:00,49.7,42.8,30.28,SSW,203,3.4,4.0,77,0.00,,,0.00,WUHU216HW,2013-01-07 19:05:00,
2013-01-07 11:10:00,49.7,42.8,30.28,SE,135,3.4,4.0,77,0.00,,,0.00,WUHU216HW,2013-01-07 19:10:00,
2013-01-07 11:15:00,50.0,43.1,30.28,ESE,113,2.5,3.4,77,0.00,,,0.00,WUHU216HW,2013-01-07 19:15:00,
2013-01-07 11:20:00,50.4,42.8,30.27,SSE,158,3.1,3.8,75,0.00,,,0.00,WUHU216HW,2013-01-07 19:20:00,
2013-01-07 11:25:00,50.6,42.9,30.26,WSW,248,0.4,4.3,75,0.00,,,0.00,WUHU216HW,2013-01-07 19:25:00,
2013-01-07 11:30:00,50.6,42.9,30.26,South,180,2.0,4.3,75,0.00,,,0.00,WUHU216HW,2013-01-07 19:30:00,
2013-01-07 11:35:00,50.8,42.8,30.25,SSW,203,1.3,2.5,74,0.00,,,0.00,WUHU216HW,2013-01-07 19:35:00,
2013-01-07 11:40:00,51.5,42.9,30.25,SSE,158,2.5,4.9,72,0.00,,,0.00,WUHU216HW,2013-01-07 19:40:00,
2013-01-07 11:45:00,52.2,43.5,30.24,SSW,203,3.1,4.9,72,0.00,,,0.00,WUHU216HW,2013-01-07 19:45:00,
2013-01-07 11:50:00,52.2,43.1,30.24,South,180,2.0,4.3,71,0.00,,,0.00,WUHU216HW,2013-01-07 19:50:00,
2013-01-07 11:55:00,52.0,43.3,30.24,SSE,158,1.6,4.0,72,0.00,,,0.00,WUHU216HW,2013-01-07 19:55:00,
2013-01-07 12:00:00,52.2,42.9,30.23,SSE,158,1.8,5.8,70,0.00,,,0.00,WUHU216HW,2013-01-07 20:00:00,
2013-01-07 12:05:00,51.8,42.5,30.23,SSW,203,3.8,5.8,70,0.00,,,0.00,WUHU216HW,2013-01-07 20:05:00,
2013-01-07 12:10:00,52.0,42.7,30.23,SE,135,0.9,5.4,70,0.00,,,0.00,WUHU216HW,2013-01-07 20:10:00,
2013-01-07 12:15:00,52.9,43.0,30.23,SSW,203,3.1,5.1,69,0.00,,,0.00,WUHU216HW,2013-01-07 20:15:00,
2013-01-07 12:19:00,53.5,43.1,30.23,SSE,158,4.0,4.0,68,0.00,,,0.00,WUHU216HW,2013-01-07 20:19:00,
2013-01-07 12:24:00,53.6,42.5,30.22,SSE,158,2.0,5.4,66,0.00,,,0.00,WUHU216HW,2013-01-07 20:24:00,
2013-01-07 12:29:00,53.5,42.4,30.23,SE,135,2.2,5.4,66,0.00,,,0.00,WUHU216HW,2013-01-07 20:29:00,
2013-01-07 12:34:00,53.6,42.5,30.22,SSE,158,1.8,4.3,66,0.00,,,0.00,WUHU216HW,2013-01-07 20:34:00,
2013-01-07 12:39:00,53.6,42.1,30.22,SSW,203,1.8,4.0,65,0.00,,,0.00,WUHU216HW,2013-01-07 20:39:00,
2013-01-07 12:44:00,52.9,41.9,30.22,South,180,1.8,2.9,66,0.00,,,0.00,WUHU216HW,2013-01-07 20:44:00,
2013-01-07 12:49:00,52.7,42.1,30.22,SE,135,1.6,2.5,67,0.00,,,0.00,WUHU216HW,2013-01-07 20:49:00,
2013-01-07 12:54:00,53.3,42.6,30.22,WSW,248,0.9,2.5,67,0.00,,,0.00,WUHU216HW,2013-01-07 20:54:00,
2013-01-07 12:59:00,53.6,41.3,30.23,SE,135,1.1,4.9,63,0.00,,,0.00,WUHU216HW,2013-01-07 20:59:00,
2013-01-07 13:04:00,54.0,41.7,30.23,North,0,2.7,4.9,63,0.00,,,0.00,WUHU216HW,2013-01-07 21:04:00,
2013-01-07 13:09:00,53.8,41.5,30.24,ENE,68,1.1,4.5,63,0.00,,,0.00,WUHU216HW,2013-01-07 21:09:00,
2013-01-07 13:14:00,53.8,42.7,30.23,WNW,293,0.9,3.1,66,0.00,,,0.00,WUHU216HW,2013-01-07 21:14:00,
2013-01-07 13:19:00,53.6,41.8,30.23,SSW,203,2.2,3.1,64,0.00,,,0.00,WUHU216HW,2013-01-07 21:19:00,
2013-01-07 13:24:00,52.9,41.1,30.23,West,270,1.8,2.9,64,0.00,,,0.00,WUHU216HW,2013-01-07 21:24:00,
2013-01-07 13:29:00,52.2,41.1,30.24,WNW,293,0.4,2.9,66,0.00,,,0.00,WUHU216HW,2013-01-07 21:29:00,
2013-01-07 13:34:00,52.0,41.4,30.23,West,270,0.2,2.9,67,0.00,,,0.00,WUHU216HW,2013-01-07 21:34:00,
2013-01-07 13:39:00,52.2,41.1,30.24,SSW,203,1.6,2.9,66,0.00,,,0.00,WUHU216HW,2013-01-07 21:39:00,
2013-01-07 13:44:00,52.7,42.1,30.24,SSE,158,1.3,2.0,67,0.00,,,0.00,WUHU216HW,2013-01-07 21:44:00,
2013-01-07 13:49:00,52.9,42.2,30.23,WNW,293,0.2,1.8,67,0.00,,,0.00,WUHU216HW,2013-01-07 21:49:00,
2013-01-07 13:54:00,52.7,41.7,30.23,NW,315,0.4,1.8,66,0.00,,,0.00,WUHU216HW,2013-01-07 21:54:00,
2013-01-07 13:59:00,52.2,41.9,30.23,SW,225,0.2,4.9,68,0.00,,,0.00,WUHU216HW,2013-01-07 21:59:00,
2013-01-07 14:04:00,51.7,41.0,30.23,West,270,2.7,4.9,67,0.00,,,0.00,WUHU216HW,2013-01-07 22:04:00,
2013-01-07 14:09:00,51.5,41.3,30.23,SW,225,1.1,3.1,68,0.00,,,0.00,WUHU216HW,2013-01-07 22:09:00,
2013-01-07 14:14:00,51.5,40.9,30.23,West,270,2.2,4.0,67,0.00,,,0.00,WUHU216HW,2013-01-07 22:14:00,
2013-01-07 14:19:00,51.3,41.9,30.23,WSW,248,1.6,4.0,70,0.00,,,0.00,WUHU216HW,2013-01-07 22:19:00,
2013-01-07 14:24:00,51.7,41.5,30.22,SSW,203,0.0,3.1,68,0.00,,,0.00,WUHU216HW,2013-01-07 22:24:00,
2013-01-07 14:29:00,52.0,41.9,30.22,SSW,203,0.0,1.6,68,0.00,,,0.00,WUHU216HW,2013-01-07 22:29:00,
2013-01-07 14:34:00,52.4,41.8,30.21,SSW,203,0.7,1.1,67,0.00,,,0.00,WUHU216HW,2013-01-07 22:34:00,
2013-01-07 14:39:00,52.4,41.8,30.21,SW,225,0.9,1.1,67,0.00,,,0.00,WUHU216HW,2013-01-07 22:39:00,
2013-01-07 14:44:00,52.9,41.4,30.21,SW,225,1.1,1.6,65,0.00,,,0.00,WUHU216HW,2013-01-07 22:44:00,
2013-01-07 14:49:00,52.7,40.9,30.21,SSW,203,0.9,1.6,64,0.00,,,0.00,WUHU216HW,2013-01-07 22:49:00,
2013-01-07 14:54:00,52.9,41.4,30.21,WSW,248,0.4,1.1,65,0.00,,,0.00,WUHU216HW,2013-01-07 22:54:00,
2013-01-07 14:59:00,53.1,41.6,30.21,SSW,203,0.4,1.1,65,0.00,,,0.00,WUHU216HW,2013-01-07 22:59:00,
2013-01-07 15:04:00,53.1,41.2,30.21,South,180,1.1,1.6,64,0.00,,,0.00,WUHU216HW,2013-01-07 23:04:00,
2013-01-07 15:09:00,53.1,41.2,30.21,WSW,248,0.9,1.6,64,0.00,,,0.00,WUHU216HW,2013-01-07 23:09:00,
2013-01-07 15:14:00,53.5,41.6,30.21,SSE,158,0.4,1.3,64,0.00,,,0.00,WUHU216HW,2013-01-07 23:14:00,
2013-01-07 15:19:00,54.2,41.9,30.20,WSW,248,0.0,1.6,63,0.00,,,0.00,WUHU216HW,2013-01-07 23:19:00,
2013-01-07 15:24:00,55.1,42.3,30.20,WNW,293,0.0,1.6,62,0.00,,,0.00,WUHU216HW,2013-01-07 23:24:00,
2013-01-07 15:29:00,55.4,41.8,30.20,SW,225,0.4,1.1,60,0.00,,,0.00,WUHU216HW,2013-01-07 23:29:00,
2013-01-07 15:34:00,55.3,41.6,30.21,SSW,203,0.4,1.1,60,0.00,,,0.00,WUHU216HW,2013-01-07 23:34:00,
2013-01-07 15:39:00,55.4,41.8,30.21,SSE,158,0.4,1.1,60,0.00,,,0.00,WUHU216HW,2013-01-07 23:39:00,
2013-01-07 15:44:00,55.1,41.4,30.21,West,270,0.4,1.8,60,0.00,,,0.00,WUHU216HW,2013-01-07 23:44:00,
2013-01-07 15:49:00,54.7,41.5,30.21,SE,135,0.4,2.0,61,0.00,,,0.00,WUHU216HW,2013-01-07 23:49:00,
2013-01-07 15:54:00,54.5,41.3,30.21,WNW,293,0.7,2.0,61,0.00,,,0.00,WUHU216HW,2013-01-07 23:54:00,
2013-01-07 15:59:00,54.2,41.4,30.21,WSW,248,0.0,1.8,62,0.00,,,0.00,WUHU216HW,2013-01-07 23:59:00,
2013-01-07 16:04:00,53.8,41.1,30.21,SSW,203,0.0,0.7,62,0.00,,,0.00,WUHU216HW,2013-01-08 00:04:00,
2013-01-07 16:09:00,52.9,40.6,30.21,WNW,293,0.9,1.6,63,0.00,,,0.00,WUHU216HW,2013-01-08 00:09:00,
2013-01-07 16:14:00,52.0,40.6,30.21,SSW,203,0.0,1.6,65,0.00,,,0.00,WUHU216HW,2013-01-08 00:14:00,
2013-01-07 16:19:00,51.7,40.7,30.21,WNW,293,0.2,1.1,66,0.00,,,0.00,WUHU216HW,2013-01-08 00:19:00,
2013-01-07 16:24:00,51.5,40.5,30.21,WNW,293,0.0,1.1,66,0.00,,,0.00,WUHU216HW,2013-01-08 00:24:00,
2013-01-07 16:29:00,51.3,40.7,30.22,South,180,0.0,0.4,67,0.00,,,0.00,WUHU216HW,2013-01-08 00:29:00,
2013-01-07 16:34:00,50.8,40.6,30.21,South,180,0.0,0.4,68,0.00,,,0.00,WUHU216HW,2013-01-08 00:34:00,
2013-01-07 16:39:00,50.6,40.4,30.21,South,180,0.0,0.4,68,0.00,,,0.00,WUHU216HW,2013-01-08 00:39:00,
2013-01-07 16:44:00,50.4,40.2,30.22,South,180,0.0,0.0,68,0.00,,,0.00,WUHU216HW,2013-01-08 00:44:00,
2013-01-07 16:49:00,50.0,40.3,30.22,South,180,0.0,0.0,69,0.00,,,0.00,WUHU216HW,2013-01-08 00:49:00,
2013-01-07 16:54:00,49.9,40.5,30.22,South,180,0.0,0.0,70,0.00,,,0.00,WUHU216HW,2013-01-08 00:54:00,
2013-01-07 16:59:00,49.7,40.3,30.22,South,180,0.0,0.0,70,0.00,,,0.00,WUHU216HW,2013-01-08 00:59:00,
2013-01-07 17:04:00,49.7,41.1,30.22,South,180,0.0,0.0,72,0.00,,,0.00,WUHU216HW,2013-01-08 01:04:00,
2013-01-07 17:09:00,49.5,40.9,30.22,South,180,0.0,0.0,72,0.00,,,0.00,WUHU216HW,2013-01-08 01:09:00,
2013-01-07 17:14:00,49.3,40.7,30.22,South,180,0.0,0.0,72,0.00,,,0.00,WUHU216HW,2013-01-08 01:14:00,
2013-01-07 17:19:00,49.3,41.7,30.22,South,180,0.0,0.0,75,0.00,,,0.00,WUHU216HW,2013-01-08 01:19:00,
2013-01-07 17:24:00,49.1,41.5,30.22,South,180,0.0,0.2,75,0.00,,,0.00,WUHU216HW,2013-01-08 01:24:00,
2013-01-07 17:29:00,49.0,41.3,30.22,South,180,0.0,0.2,75,0.00,,,0.00,WUHU216HW,2013-01-08 01:29:00,
2013-01-07 17:34:00,49.0,41.3,30.22,South,180,0.0,0.0,75,0.00,,,0.00,WUHU216HW,2013-01-08 01:34:00,
2013-01-07 17:39:00,48.8,40.8,30.22,South,180,0.0,0.0,74,0.00,,,0.00,WUHU216HW,2013-01-08 01:39:00,
2013-01-07 17:44:00,48.6,41.0,30.22,WNW,293,0.2,0.9,75,0.00,,,0.00,WUHU216HW,2013-01-08 01:44:00,
2013-01-07 17:49:00,48.6,41.3,30.22,NW,315,0.0,0.9,76,0.00,,,0.00,WUHU216HW,2013-01-08 01:49:00,
2013-01-07 17:54:00,48.2,41.0,30.22,NW,315,0.0,0.2,76,0.00,,,0.00,WUHU216HW,2013-01-08 01:54:00,
2013-01-07 17:59:00,47.9,40.6,30.22,NW,315,0.0,0.0,76,0.00,,,0.00,WUHU216HW,2013-01-08 01:59:00,
2013-01-07 18:04:00,47.7,41.1,30.22,NW,315,0.2,0.2,78,0.00,,,0.00,WUHU216HW,2013-01-08 02:04:00,
2013-01-07 18:09:00,47.3,40.8,30.22,NW,315,0.0,0.2,78,0.00,,,0.00,WUHU216HW,2013-01-08 02:09:00,
2013-01-07 18:14:00,47.2,40.7,30.22,NW,315,0.0,0.2,78,0.00,,,0.00,WUHU216HW,2013-01-08 02:14:00,
2013-01-07 18:19:00,47.0,40.1,30.22,NW,315,0.0,0.0,77,0.00,,,0.00,WUHU216HW,2013-01-08 02:19:00,
2013-01-07 18:24:00,46.6,40.1,30.22,NW,315,0.0,0.0,78,0.00,,,0.00,WUHU216HW,2013-01-08 02:24:00,
2013-01-07 18:29:00,46.4,40.0,30.22,NW,315,0.0,0.0,78,0.00,,,0.00,WUHU216HW,2013-01-08 02:29:00,
2013-01-07 18:34:00,46.3,40.1,30.21,NW,315,0.0,0.0,79,0.00,,,0.00,WUHU216HW,2013-01-08 02:34:00,
2013-01-07 18:39:00,46.1,40.0,30.21,NW,315,0.0,0.0,79,0.00,,,0.00,WUHU216HW,2013-01-08 02:39:00,
2013-01-07 18:44:00,45.9,40.4,30.20,NW,315,0.0,0.0,81,0.00,,,0.00,WUHU216HW,2013-01-08 02:44:00,
2013-01-07 18:49:00,45.7,40.2,30.20,NW,315,0.0,0.0,81,0.00,,,0.00,WUHU216HW,2013-01-08 02:49:00,
2013-01-07 18:54:00,45.5,40.1,30.20,NW,315,0.0,0.0,81,0.00,,,0.00,WUHU216HW,2013-01-08 02:54:00,
2013-01-07 18:59:00,45.5,40.4,30.21,NW,315,0.0,0.0,82,0.00,,,0.00,WUHU216HW,2013-01-08 02:59:00,
2013-01-07 19:04:00,45.4,40.5,30.21,NW,315,0.0,0.0,83,0.00,,,0.00,WUHU216HW,2013-01-08 03:04:00,
2013-01-07 19:09:00,45.4,40.5,30.20,NW,315,0.0,0.0,83,0.00,,,0.00,WUHU216HW,2013-01-08 03:09:00,
2013-01-07 19:14:00,45.2,40.1,30.20,NW,315,0.0,0.0,82,0.00,,,0.00,WUHU216HW,2013-01-08 03:14:00,
2013-01-07 19:19:00,44.8,39.7,30.20,NW,315,0.0,0.0,82,0.00,,,0.00,WUHU216HW,2013-01-08 03:19:00,
2013-01-07 19:24:00,44.5,39.3,30.20,NW,315,0.0,0.0,82,0.00,,,0.00,WUHU216HW,2013-01-08 03:24:00,
2013-01-07 19:29:00,43.9,38.8,30.20,NW,315,0.0,0.0,82,0.00,,,0.00,WUHU216HW,2013-01-08 03:29:00,
2013-01-07 19:34:00,43.7,38.9,30.20,NW,315,0.0,0.0,83,0.00,,,0.00,WUHU216HW,2013-01-08 03:34:00,
2013-01-07 19:39:00,43.2,38.3,30.20,NW,315,0.0,0.0,83,0.00,,,0.00,WUHU216HW,2013-01-08 03:39:00,
2013-01-07 19:44:00,42.7,37.8,30.20,NW,315,0.0,0.0,83,0.00,,,0.00,WUHU216HW,2013-01-08 03:44:00,
2013-01-07 19:49:00,42.1,37.6,30.20,NW,315,0.0,0.0,84,0.00,,,0.00,WUHU216HW,2013-01-08 03:49:00,
2013-01-07 19:54:00,41.6,36.5,30.20,NW,315,0.0,0.0,82,0.00,,,0.00,WUHU216HW,2013-01-08 03:54:00,
2013-01-07 19:59:00,41.2,36.4,30.20,NW,315,0.0,0.0,83,0.00,,,0.00,WUHU216HW,2013-01-08 03:59:00,
2013-01-07 20:04:00,40.9,36.0,30.20,NW,315,0.0,0.0,83,0.00,,,0.00,WUHU216HW,2013-01-08 04:04:00,
2013-01-07 20:09:00,40.5,36.0,30.20,NW,315,0.0,0.0,84,0.00,,,0.00,WUHU216HW,2013-01-08 04:09:00,
2013-01-07 20:14:00,40.1,35.6,30.20,NW,315,0.0,0.0,84,0.00,,,0.00,WUHU216HW,2013-01-08 04:14:00,
2013-01-07 20:19:00,39.6,35.2,30.20,NW,315,0.0,0.0,84,0.00,,,0.00,WUHU216HW,2013-01-08 04:19:00,
2013-01-07 20:24:00,39.4,35.0,30.21,NW,315,0.0,0.0,84,0.00,,,0.00,WUHU216HW,2013-01-08 04:24:00,
2013-01-07 20:29:00,39.2,34.8,30.21,NW,315,0.0,0.0,84,0.00,,,0.00,WUHU216HW,2013-01-08 04:29:00,
2013-01-07 20:34:00,39.1,34.7,30.21,NW,315,0.0,0.0,84,0.00,,,0.00,WUHU216HW,2013-01-08 04:34:00,
2013-01-07 20:39:00,38.9,34.5,30.21,NW,315,0.0,0.0,84,0.00,,,0.00,WUHU216HW,2013-01-08 04:39:00,
2013-01-07 20:44:00,38.5,34.4,30.22,NW,315,0.0,0.0,85,0.00,,,0.00,WUHU216HW,2013-01-08 04:44:00,
2013-01-07 20:49:00,38.5,34.4,30.22,NW,315,0.0,0.0,85,0.00,,,0.00,WUHU216HW,2013-01-08 04:49:00,
2013-01-07 20:54:00,38.5,34.7,30.22,NW,315,0.0,0.0,86,0.00,,,0.00,WUHU216HW,2013-01-08 04:54:00,
2013-01-07 20:59:00,38.3,34.5,30.22,NW,315,0.0,0.0,86,0.00,,,0.00,WUHU216HW,2013-01-08 04:59:00,
2013-01-07 21:00:00,38.3,34.5,30.22,NW,315,0.0,0.0,86,0.00,,,0.00,WUHU216HW,2013-01-08 05:00:00,
2013-01-07 21:03:00,38.2,34.3,30.22,NW,315,0.0,0.0,86,0.00,,,0.00,WUHU216HW,2013-01-08 05:03:00,
2013-01-07 21:08:00,37.8,33.9,30.22,NW,315,0.0,0.0,86,0.00,,,0.00,WUHU216HW,2013-01-08 05:08:00,
2013-01-07 21:13:00,37.6,33.8,30.22,NW,315,0.0,0.0,86,0.00,,,0.00,WUHU216HW,2013-01-08 05:13:00,
2013-01-07 21:18:00,37.4,33.6,30.21,NW,315,0.0,0.0,86,0.00,,,0.00,WUHU216HW,2013-01-08 05:18:00,
2013-01-07 21:23:00,37.8,34.2,30.21,NW,315,0.0,0.2,87,0.00,,,0.00,WUHU216HW,2013-01-08 05:23:00,
2013-01-07 21:28:00,37.8,34.2,30.21,NW,315,0.0,0.2,87,0.00,,,0.00,WUHU216HW,2013-01-08 05:28:00,
2013-01-07 21:33:00,37.8,34.2,30.21,NW,315,0.0,0.0,87,0.00,,,0.00,WUHU216HW,2013-01-08 05:33:00,
2013-01-07 21:38:00,37.8,34.2,30.21,NW,315,0.0,0.0,87,0.00,,,0.00,WUHU216HW,2013-01-08 05:38:00,
2013-01-07 21:43:00,37.6,34.0,30.22,NW,315,0.0,0.0,87,0.00,,,0.00,WUHU216HW,2013-01-08 05:43:00,
2013-01-07 21:48:00,37.6,34.0,30.21,NW,315,0.0,0.0,87,0.00,,,0.00,WUHU216HW,2013-01-08 05:48:00,
2013-01-07 21:53:00,37.6,34.0,30.22,NW,315,0.0,0.0,87,0.00,,,0.00,WUHU216HW,2013-01-08 05:53:00,
2013-01-07 21:58:00,37.4,33.8,30.22,NW,315,0.0,0.0,87,0.00,,,0.00,WUHU216HW,2013-01-08 05:58:00,
2013-01-07 22:03:00,37.1,33.5,30.21,NW,315,0.0,0.0,87,0.00,,,0.00,WUHU216HW,2013-01-08 06:03:00,
2013-01-07 22:08:00,36.9,33.3,30.22,NW,315,0.0,0.0,87,0.00,,,0.00,WUHU216HW,2013-01-08 06:08:00,
2013-01-07 22:13:00,36.7,33.1,30.22,NW,315,0.0,0.0,87,0.00,,,0.00,WUHU216HW,2013-01-08 06:13:00,
2013-01-07 22:18:00,36.5,32.9,30.22,NW,315,0.0,0.0,87,0.00,,,0.00,WUHU216HW,2013-01-08 06:18:00,
2013-01-07 22:23:00,36.4,32.8,30.22,NW,315,0.0,0.0,87,0.00,,,0.00,WUHU216HW,2013-01-08 06:23:00,
2013-01-07 22:28:00,36.7,33.8,30.23,NW,315,0.0,0.4,89,0.00,,,0.00,WUHU216HW,2013-01-08 06:28:00,
2013-01-07 22:33:00,37.1,34.1,30.23,West,270,0.0,0.4,89,0.00,,,0.00,WUHU216HW,2013-01-08 06:33:00,
2013-01-07 22:38:00,37.1,34.1,30.23,West,270,0.0,0.2,89,0.00,,,0.00,WUHU216HW,2013-01-08 06:38:00,
2013-01-07 22:43:00,37.1,34.1,30.23,WNW,293,0.0,0.0,89,0.00,,,0.00,WUHU216HW,2013-01-08 06:43:00,
2013-01-07 22:48:00,36.5,33.6,30.23,WNW,293,0.0,0.0,89,0.00,,,0.00,WUHU216HW,2013-01-08 06:48:00,
2013-01-07 22:53:00,36.2,33.0,30.23,WNW,293,0.0,0.0,88,0.00,,,0.00,WUHU216HW,2013-01-08 06:53:00,
2013-01-07 22:58:00,35.8,32.6,30.23,WNW,293,0.0,0.0,88,0.00,,,0.00,WUHU216HW,2013-01-08 06:58:00,
2013-01-07 23:03:00,35.6,32.4,30.23,WNW,293,0.0,0.0,88,0.00,,,0.00,WUHU216HW,2013-01-08 07:03:00,
2013-01-07 23:08:00,35.5,32.5,30.23,NE,45,0.0,0.0,89,0.00,,,0.00,WUHU216HW,2013-01-08 07:08:00,
2013-01-07 23:13:00,35.5,32.5,30.23,ENE,68,0.0,0.0,89,0.00,,,0.00,WUHU216HW,2013-01-08 07:13:00,
2013-01-07 23:18:00,35.3,32.3,30.22,ENE,68,0.0,0.0,89,0.00,,,0.00,WUHU216HW,2013-01-08 07:18:00,
2013-01-07 23:23:00,35.6,32.7,30.22,NE,45,0.0,0.0,89,0.00,,,0.00,WUHU216HW,2013-01-08 07:23:00,
2013-01-07 23:28:00,36.2,33.2,30.22,ENE,68,0.0,0.0,89,0.00,,,0.00,WUHU216HW,2013-01-08 07:28:00,
2013-01-07 23:33:00,36.4,33.4,30.22,ENE,68,0.4,0.4,89,0.00,,,0.00,WUHU216HW,2013-01-08 07:33:00,
2013-01-07 23:38:00,36.7,34.0,30.22,SE,135,0.0,0.4,90,0.00,,,0.00,WUHU216HW,2013-01-08 07:38:00,
2013-01-07 23:43:00,37.3,34.6,30.22,SE,135,0.4,0.4,90,0.00,,,0.00,WUHU216HW,2013-01-08 07:43:00,
2013-01-07 23:48:00,37.4,34.7,30.22,SE,135,0.0,0.9,90,0.00,,,0.00,WUHU216HW,2013-01-08 07:48:00,
2013-01-07 23:53:00,37.4,34.7,30.21,ESE,113,0.0,0.9,90,0.00,,,0.00,WUHU216HW,2013-01-08 07:53:00,
2013-01-07 23:58:00,37.4,34.7,30.21,ESE,113,0.0,0.4,90,0.00,,,0.00,WUHU216HW,2013-01-08 07:58:00,